This demonstration page uses our WeatherBlox Daily Observations layout. Learn more.

Left ArrowRight Arrow

39.51506, -84.39828

Hourly Observations for November 30, 2020

Temp ( °F °C ) Dew Point ( °F °C ) Humidity (%) Winds ( mph kmh ) Pressure ( in mb ) Visibility ( mi km ) Precip ( " mm )
12:15 am 00:15 Cloudy 44 6.8 33 0.4 64 64 NNE 6 9 29.84 1010 10 16.0934 0 0
12:35 am 00:35 Cloudy with Light Rain 44 6.7 34 1.1 68 68 Calm 29.83 1010 10 16.0934 0 0
12:55 am 00:55 Cloudy with Rain 45 7 33 0.7 65 65 NE 9 15 29.81 1009 7 11.26538 0.01 0.254
1:15 am 01:15 Cloudy with Light Rain 44 6.5 36 2.2 74 74 N 8 13 29.8 1009 10 16.0934 0 0
1:35 am 01:35 Cloudy with Light Rain 44 6.6 35 1.7 71 71 N 6 9 29.79 1009 10 16.0934 0 0
1:55 am 01:55 Cloudy with Light Rain 44 6.4 35 1.9 73 73 N 7 11 29.8 1009 10 16.0934 0 0
2:15 am 02:15 Cloudy with Light Rain 43 6.3 35 1.9 74 74 N 5 7 29.79 1009 10 16.0934 0 0
2:35 am 02:35 Cloudy with Rain 42 5.8 37 3 82 82 NE 6 9 29.78 1008 7 11.26538 0.02 0.508
2:55 am 02:55 Cloudy with Rain 42 5.7 37 2.8 82 82 NE 16 26 29.77 1008 7 11.26538 0.05 1.27
3:15 am 03:15 Cloudy with Light Rain 41 5 38 3.3 89 89 NE 8 13 29.77 1008 10 16.0934 0.01 0.254
3:35 am 03:35 Cloudy with Rain 41 4.8 38 3.1 89 89 NE 12 19 29.76 1008 7 11.26538 0.04 1.016
3:55 am 03:55 Cloudy with Light Rain 40 4.5 38 3.2 91 91 NNE 8 13 29.76 1008 7 11.26538 0.06 1.524
4:15 am 04:15 Cloudy with Light Rain 39 3.9 37 2.7 92 92 NNE 10 17 29.75 1008 10 16.0934 0.02 0.508
4:35 am 04:35 Cloudy with Light Rain 39 3.8 37 2.7 93 93 NNE 8 13 29.75 1008 10 16.0934 0.03 0.762
4:55 am 04:55 Cloudy with Light Rain 39 3.7 37 3 95 95 NNE 7 11 29.76 1008 7 11.26538 0.04 1.016
5:15 am 05:15 Cloudy with Rain 39 3.7 37 2.6 93 93 NNE 10 17 29.76 1008 7 11.26538 0.01 0.254
5:35 am 05:35 Cloudy with Rain 38 3.4 37 2.6 95 95 NNE 10 17 29.75 1007 7 11.26538 0.04 1.016
5:55 am 05:55 Cloudy with Light Rain 38 3.2 37 2.6 96 96 NE 8 13 29.75 1007 7 11.26538 0.06 1.524
6:15 am 06:15 Cloudy with Light Rain 38 3.1 37 2.5 96 96 N 10 17 29.74 1007 7 11.26538 0.02 0.508
6:35 am 06:35 Cloudy with Light Rain 38 3.1 37 2.6 97 97 N 6 9 29.74 1007 7 11.26538 0.03 0.762
6:55 am 06:55 Cloudy with Light Rain 37 2.9 36 2.3 96 96 NNE 8 13 29.73 1007 7 11.26538 0.05 1.27
7:15 am 07:15 Cloudy with Light Rain 37 3 37 2.5 97 97 NNE 8 13 29.73 1007 7 11.26538 0.02 0.508
7:35 am 07:35 Cloudy with Light Rain 38 3.1 36 2.4 95 95 NNE 8 13 29.74 1007 7 11.26538 0.03 0.762
7:55 am 07:55 Cloudy with Light Rain 37 2.8 36 2.1 95 95 NNE 10 17 29.74 1007 5 8.0467 0.05 1.27
8:15 am 08:15 Cloudy with Light Rain 37 2.8 36 2.3 97 97 N 10 17 29.74 1007 5 8.0467 0.01 0.254
8:35 am 08:35 Cloudy with Light Rain 37 2.6 36 2 96 96 N 8 13 29.74 1007 5 8.0467 0.03 0.762
8:55 am 08:55 Cloudy with Light Rain 36 2.4 35 1.9 97 97 N 10 17 29.74 1007 5 8.0467 0.04 1.016
9:15 am 09:15 Cloudy with Light Rain 36 2 35 1.4 96 96 N 10 17 29.74 1007 10 16.0934 0.01 0.254
9:35 am 09:35 Cloudy with Light Rain 35 1.8 34 1.2 96 96 N 15 24 29.74 1007 7 11.26538 0.01 0.254
9:55 am 09:55 Cloudy with Light Rain 35 1.8 34 1.2 96 96 N 16 26 29.74 1007 7 11.26538 0.02 0.508
10:15 am 10:15 Cloudy with Light Rain 35 1.9 34 1.1 95 95 N 16 26 29.74 1007 10 16.0934 0 0
10:35 am 10:35 Cloudy with Light Rain 36 2 34 1.2 95 95 N 18 30 29.74 1007 10 16.0934 0 0
10:55 am 10:55 Cloudy with Light Rain 35 1.7 34 1 95 95 N 15 24 29.75 1007 7 11.26538 0 0
11:15 am 11:15 Cloudy with Light Rain 35 1.7 34 0.9 94 94 N 14 22 29.75 1007 10 16.0934 0 0
11:30 am 11:30 Cloudy with Light Rain 35 1.7 34 0.9 94 94 N 16 26 29.76 1008 10 16.0934 0 0
11:55 am 11:55 Cloudy with Light Snow 34 1.2 32 0.2 93 93 N 16 26 29.76 1008 2 3.21868 0 0
12:15 pm 12:15 Cloudy with Light Snow 34 1.1 33 0.6 97 97 NNW 12 19 29.77 1008 2 3.21868 0.01 0.254
12:35 pm 12:35 Cloudy with Light Snow 34 0.9 33 0.3 96 96 N 10 17 29.77 1008 2 3.21868 0.01 0.254
12:55 pm 12:55 Cloudy with Light Snow 34 0.9 33 0.4 97 97 N 17 28 29.77 1008 1.5 2.41401 0.01 0.254
1:15 pm 13:15 Cloudy with Light Snow 33 0.8 33 0.3 97 97 N 9 15 29.77 1008 1.5 2.41401 0 0
1:35 pm 13:35 Cloudy with Light Snow 34 0.9 33 0.5 97 97 N 15 24 29.77 1008 1.5 2.41401 0 0
1:55 pm 13:55 Cloudy with Light Snow 34 1.1 33 0.5 96 96 N 14 22 29.78 1009 3 4.82802 0 0
2:15 pm 14:15 Cloudy with Light Snow 34 1.2 33 0.5 95 95 NNW 12 19 29.78 1009 2.5 4.02335 0 0
2:35 pm 14:35 Cloudy with Light Snow 34 1.3 33 0.7 96 96 NNW 13 20 29.78 1009 2.5 4.02335 0 0
2:55 pm 14:55 Cloudy with Light Snow 34 1.3 33 0.6 95 95 NNW 13 20 29.78 1009 2.5 4.02335 0 0
3:15 pm 15:15 Cloudy with Light Snow 34 1 32 0.2 94 94 NNW 15 24 29.79 1009 2 3.21868 0 0
3:35 pm 15:35 Cloudy with Light Snow 34 1 33 0.3 95 95 NNW 14 22 29.79 1009 2.5 4.02335 0 0
3:55 pm 15:55 Cloudy with Light Snow 34 0.9 32 0.1 94 94 NNW 14 22 29.8 1009 2.5 4.02335 0 0
4:15 pm 16:15 Cloudy with Light Snow 33 0.8 32 0.2 96 96 NNW 10 17 29.8 1009 2.5 4.02335 0 0
4:35 pm 16:35 Cloudy with Light Snow 33 0.8 32 0.1 95 95 NNW 7 11 29.81 1010 1.75 2.816345 0 0
4:55 pm 16:55 Cloudy with Light Snow 33 0.7 32 0 95 95 NNW 9 15 29.81 1010 3.5 5.63269 0 0
5:15 pm 17:15 Cloudy with Light Snow 33 0.5 32 0 96 96 NNW 13 20 29.81 1010 1.75 2.816345 0 0
5:35 pm 17:35 Cloudy with Light Snow 33 0.5 32 -0.1 96 96 NNW 10 17 29.82 1010 1.25 2.011675 0 0
5:55 pm 17:55 Cloudy 32 0 32 0 100 100 undefined N/A N/A N/A 0 0
6:15 pm 18:15 undefined N/A N/A N/A undefined N/A N/A N/A 0 0
6:35 pm 18:35 Cloudy with Light Snow 33 0.4 32 0 97 97 NW 10 17 29.83 1010 2.5 4.02335 0 0
6:55 pm 18:55 Cloudy with Light Snow 33 0.4 32 0 97 97 NW 10 17 29.83 1010 2.5 4.02335 0 0
7:15 pm 19:15 Cloudy with Light Snow 33 0.4 32 -0.1 96 96 NNW 13 20 29.84 1011 2.5 4.02335 0 0
7:35 pm 19:35 Cloudy with Light Snow 33 0.4 32 -0.2 96 96 NNW 10 17 29.84 1011 2.5 4.02335 0 0
7:55 pm 19:55 Cloudy with Light Snow 33 0.4 32 -0.2 96 96 NW 9 15 29.85 1011 4 6.43736 0 0
8:15 pm 20:15 Cloudy with Light Snow 33 0.4 32 -0.1 96 96 NW 8 13 29.85 1011 3.5 5.63269 0 0
8:35 pm 20:35 Cloudy with Light Snow 33 0.4 32 -0.2 96 96 NW 12 19 29.85 1011 4 6.43736 0 0
8:55 pm 20:55 Cloudy with Light Snow 33 0.4 31 -0.3 95 95 NW 10 17 29.85 1011 4 6.43736 0 0
9:15 pm 21:15 Cloudy with Light Snow 33 0.4 32 -0.2 96 96 NNW 9 15 29.85 1011 4 6.43736 0 0
9:35 pm 21:35 Cloudy with Light Snow 33 0.4 31 -0.3 95 95 NNW 12 19 29.86 1011 3.5 5.63269 0 0
9:55 pm 21:55 Cloudy with Light Snow 33 0.3 31 -0.3 96 96 NW 9 15 29.86 1011 5 8.0467 0 0
10:15 pm 22:15 Cloudy with Light Snow 33 0.4 31 -0.5 94 94 NNW 9 15 29.87 1012 4 6.43736 0 0
10:35 pm 22:35 Cloudy with Light Snow 33 0.4 31 -0.5 94 94 NNW 12 19 29.87 1012 4 6.43736 0 0
10:55 pm 22:55 Cloudy with Light Snow 32 0.2 31 -0.6 94 94 NW 8 13 29.87 1012 7 11.26538 0 0
11:15 pm 23:15 Cloudy with Light Snow 32 0.1 30 -0.9 93 93 NW 13 20 29.87 1012 7 11.26538 0 0
11:35 pm 23:35 Cloudy with Light Snow 32 -0.1 30 -0.9 94 94 NW 10 17 29.89 1012 3 4.82802 0 0
11:55 pm 23:55 Cloudy with Light Snow 32 -0.2 30 -0.9 95 95 NW 10 17 29.89 1012 3.5 5.63269 0 0

Powered by AerisWeather